APRIZESAT 1

Last updated on July 6, 2021, 3:39 p.m. UTC

1 28372U 04025G   21186.85099647  .00000030  00000-0  19789-4 0  9990
2 28372  98.4423 141.1594 0045088 250.3789 109.2535 14.49679905899889
UTC
Height (km)
Latitude
Longitude
Inclination
Orbital Period
UTC large
Height (km)
Speed (km/s)
/
Latitude / Longitude
Inclination (degrees)
Orbital Period (minutes)
Azimuth
Elevation
Range (km)
Doppler Factor
iOS Compass Heading
iOS Angle